Location: Karcze
(52.0945°N, 22.4786°E)
Time: 12:41:24
(UTC+00:00)

Cosmos 468 Rocket - Pass Details

Date: 14 July 2020
Orbit: 743 x 780 km, 74.0° (Epoch: 07 August)

Event Time Altitude Azimuth Distance (km) Brightness Sun altitude
Rises 00:51:13 0° 335° (NNW) 3,265 7.8 -10.6°
Reaches altitude 10° 00:53:37 10° 337° (NNW) 2,338 7.0 -10.4°
Maximum altitude 00:58:56 73° 63° (ENE) 818 4.3 -9.9°
Drops below altitude 10° 01:04:15 10° 148° (SSE) 2,331 6.3 -9.5°
Sets 01:06:38 0° 151° (SSE) 3,255 7.0 -9.3°
